星链-4633 (STARLINK-4633 )

导读

STARLINK-4633是美国太空探索技术公司(SpaceX)于2022年10月5日发射的星链低轨互联网通信卫星,隶属于星链星座组网项目。星链旨在构建全球卫星互联网,该卫星进入预定轨道后,为全球范围尤其是偏远地区提供高速网络服务,目前已在轨道稳定运行,支撑星链系统的全球覆盖能力。

Basic Information
目录编号:
53964
目录名称:
STARLINK-4633
国际标识:
2022-125A
轨道中心:
EARTH
卫星名称:
星链-4633
卫星全名:
星链-4633 (STARLINK-4633 )
卫星状态:
在轨 (已飞行1430 天)
发射日期:
2022-10-05 UTC
国别 :
美国 (US)
星等 :
--
Orbit Information
数据来源 国际轨道数据
星历时间: 2026-09-04T01:40:50+0800
13小时前
查看轨道信息
半长轴: 6840.863km
偏心率: 0.0001167
轨道倾角: 53.162°
近地点辐角 77.179°
升交点赤经 139.899°
平近点角 282.935°
近地点: 461.927km
远地点: 463.525km
周期: 93.848分钟
每日圈数: 15.343924
Detailed Information
固有亮度:
5
最大亮度:
2.5
卫星平台:
Starlink v1.5
覆盖范围:
全球
运营商:
太空探索技术公司
运营商所在国:
美国
制造商(研发单位):
太空探索技术公司
制造商所在国:
美国
使用方式:
暂无
Satellite Introduction
星链(Starlink)计划是由太空探索技术公司(SpaceX)提出的一个巨型低轨卫星互联网星座项目,计划在2019年至2024年间在太空搭建由约1.2万颗卫星组成的“星链”网络,其中1584颗将部署在地球上空550千米处的近地轨道,并从2020年开始工作。该卫星仍在工作。
2D Orbit Map
3D Orbit Map
Orbit Altitude Analysis Chart
Orbit Inclination Analysis Chart
Orbit Comprehensive Analysis Chart
View Comprehensive Chart
Conjunction Data List
Event ID Objects TCA Miss Dist (km) Collision Risk Probability Collision Risk Index (CRI) Action
CDM_260905-095605-396406-915821
2026-09-05T
09:56:24+0000
0.243 km
中距离
2.042116E-4 高风险 0.81
CDM_260901-173305-396405-911721
2026-09-01T
17:33:04+0000
0.828 km
远距离
4.718465E-5 中风险 0.68
CDM_260903-210505-396406-807621
2026-09-03T
21:05:45+0000
0.937 km
远距离
2.037919E-5 中风险 0.61
CDM_260904-084905-396406-807621
2026-09-04T
08:49:12+0000
1.226 km
极远距离
8.034139E-6 低风险 0.53
CDM_260905-104305-396406-915821
2026-09-05T
10:43:18+0000
0.846 km
远距离
6.386587E-6 低风险 0.51
CDM_260905-073505-396405-912521
2026-09-05T
07:35:15+0000
1.501 km
极远距离
5.792889E-6 低风险 0.5
CDM_260903-223905-396406-807621
2026-09-03T
22:39:32+0000
1.416 km
极远距离
4.957166E-6 低风险 0.49
CDM_260904-102205-396406-807621
2026-09-04T
10:22:59+0000
1.524 km
极远距离
3.909032E-6 低风险 0.47
CDM_260902-190905-301005-396421
2026-09-02T
19:09:20+0000
1.991 km
极远距离
2.453175E-6 低风险 0.43
CDM_260904-231701-213905-396421
SL-8 R/B (12139)
2026-09-04T
23:17:34+0000
1.664 km
极远距离
2.112245E-6 低风险 0.41